When you browse on this site, cookies collect data to enhance your experience and personalize the content and advertising you see.
Visit our Privacy Policy to learn more. By continuing to use the site, you agree to this use of cookies and data.
  • In Germany
  • List of Countries
  • For 7 days
  • Water Temperature
  • Weather Map
  • Weather Widgets
  • user-avatar
    Login

    Hourly Weather Madinat 'Isa

    Today, 21 January, Tuesday

    Time Temperature Precipitation Wind Pressure Humidity
    00:00 +20°C° 0 mm 5 mps 763 mmHg 67%
    01:00 +20°C° 0 mm 5 mps 763 mmHg 66%
    02:00 +20°C° 0 mm 5 mps 763 mmHg 65%
    03:00 +19°C° 0 mm 5 mps 763 mmHg 64%
    04:00 +19°C° 0 mm 5 mps 763 mmHg 63%
    05:00 +19°C° 0 mm 5 mps 763 mmHg 63%
    06:00 +19°C° 0 mm 5 mps 763 mmHg 63%
    07:00 +19°C° 0 mm 5 mps 763 mmHg 63%
    08:00 +19°C° 0 mm 5 mps 763 mmHg 62%
    09:00 +20°C° 0 mm 5 mps 763 mmHg 62%
    10:00 +20°C° 0 mm 4 mps 763 mmHg 61%
    11:00 +20°C° 0 mm 4 mps 763 mmHg 60%
    12:00 +20°C° 0 mm 4 mps 762 mmHg 60%
    13:00 +20°C° 0 mm 4 mps 762 mmHg 59%
    14:00 +20°C° 0 mm 4 mps 761 mmHg 59%
    15:00 +20°C° 0 mm 4 mps 761 mmHg 59%
    16:00 +20°C° 0 mm 4 mps 761 mmHg 60%
    17:00 +20°C° 0 mm 4 mps 761 mmHg 61%
    18:00 +20°C° 0 mm 4 mps 762 mmHg 62%
    19:00 +20°C° 0 mm 3 mps 762 mmHg 63%
    20:00 +20°C° 0 mm 2 mps 762 mmHg 64%
    21:00 +20°C° 0 mm 2 mps 762 mmHg 65%
    22:00 +20°C° 0 mm 2 mps 762 mmHg 64%
    23:00 +20°C° 0 mm 3 mps 762 mmHg 64%

    Tomorrow, 22 January, Wednesday

    Time Temperature Precipitation Wind Pressure Humidity
    00:00 +19°C° 0 mm 3 mps 761 mmHg 64%
    01:00 +19°C° 0 mm 4 mps 761 mmHg 64%
    02:00 +19°C° 0 mm 5 mps 761 mmHg 65%
    03:00 +19°C° 0 mm 6 mps 760 mmHg 65%
    04:00 +19°C° 0 mm 6 mps 760 mmHg 65%
    05:00 +19°C° 0 mm 6 mps 760 mmHg 65%
    06:00 +19°C° 0 mm 6 mps 760 mmHg 65%
    07:00 +18°C° 0 mm 7 mps 760 mmHg 64%
    08:00 +18°C° 0 mm 7 mps 761 mmHg 64%
    09:00 +20°C° 0 mm 7 mps 761 mmHg 64%
    10:00 +20°C° 0 mm 7 mps 761 mmHg 64%
    11:00 +20°C° 0 mm 6 mps 761 mmHg 65%
    12:00 +20°C° 0 mm 5 mps 760 mmHg 66%
    13:00 +21°C° 0 mm 5 mps 760 mmHg 63%
    14:00 +21°C° 0 mm 5 mps 759 mmHg 61%
    15:00 +21°C° 0 mm 5 mps 759 mmHg 59%
    16:00 +21°C° 0 mm 5 mps 759 mmHg 59%
    17:00 +21°C° 0 mm 5 mps 760 mmHg 60%
    18:00 +21°C° 0 mm 5 mps 760 mmHg 60%
    19:00 +21°C° 0 mm 6 mps 760 mmHg 64%
    20:00 +21°C° 0 mm 7 mps 760 mmHg 68%
    21:00 +20°C° 0 mm 8 mps 761 mmHg 71%
    22:00 +20°C° 0 mm 7 mps 760 mmHg 71%
    23:00 +20°C° 0 mm 6 mps 760 mmHg 70%

    Day after tomorrow, 23 January, Thursday

    Time Temperature Precipitation Wind Pressure Humidity
    00:00 +20°C° 0 mm 5 mps 760 mmHg 70%
    01:00 +20°C° 0 mm 5 mps 760 mmHg 69%
    02:00 +20°C° 0 mm 6 mps 760 mmHg 69%
    03:00 +19°C° 0 mm 6 mps 760 mmHg 69%
    04:00 +18°C° 0 mm 8 mps 760 mmHg 69%
    05:00 +18°C° 0 mm 10 mps 761 mmHg 69%
    06:00 +17°C° 0 mm 11 mps 761 mmHg 69%
    07:00 +16°C° 0.3 mm 11 mps 762 mmHg 74%
    08:00 +14°C° 0.3 mm 11 mps 763 mmHg 78%
    09:00 +12°C° 0.3 mm 10 mps 763 mmHg 82%
    10:00 +12°C° 0.5 mm 10 mps 763 mmHg 80%
    11:00 +12°C° 0.5 mm 9 mps 763 mmHg 78%
    12:00 +12°C° 0.5 mm 8 mps 763 mmHg 76%
    13:00 +14°C° 0.9 mm 7 mps 762 mmHg 70%
    14:00 +14°C° 0.9 mm 7 mps 762 mmHg 64%
    15:00 +15°C° 0.9 mm 6 mps 762 mmHg 58%
    16:00 +15°C° 0.3 mm 5 mps 762 mmHg 57%
    17:00 +15°C° 0.3 mm 5 mps 763 mmHg 56%
    18:00 +17°C° 0.3 mm 4 mps 763 mmHg 55%
    19:00 +17°C° 0 mm 4 mps 763 mmHg 54%
    20:00 +16°C° 0 mm 5 mps 764 mmHg 54%
    21:00 +17°C° 0 mm 5 mps 764 mmHg 53%
    22:00 +16°C° 0 mm 5 mps 764 mmHg 55%
    23:00 +16°C° 0 mm 5 mps 764 mmHg 56%

    24 January, Friday

    Time Temperature Precipitation Wind Pressure Humidity
    00:00 +16°C° 0 mm 6 mps 763 mmHg 58%
    01:00 +16°C° 0 mm 6 mps 763 mmHg 60%
    02:00 +16°C° 0 mm 6 mps 763 mmHg 62%
    03:00 +16°C° 0 mm 7 mps 763 mmHg 64%
    04:00 +16°C° 0 mm 7 mps 763 mmHg 64%
    05:00 +16°C° 0 mm 7 mps 763 mmHg 64%
    06:00 +16°C° 0 mm 7 mps 764 mmHg 65%
    07:00 +16°C° 0 mm 6 mps 764 mmHg 64%
    08:00 +16°C° 0 mm 6 mps 764 mmHg 63%
    09:00 +16°C° 0 mm 6 mps 765 mmHg 62%
    10:00 +16°C° 0 mm 6 mps 764 mmHg 61%
    11:00 +16°C° 0 mm 6 mps 764 mmHg 59%
    12:00 +17°C° 0 mm 6 mps 764 mmHg 58%
    13:00 +17°C° 0 mm 5 mps 763 mmHg 57%
    14:00 +17°C° 0 mm 5 mps 763 mmHg 55%
    15:00 +18°C° 0 mm 4 mps 763 mmHg 54%
    16:00 +18°C° 0 mm 4 mps 763 mmHg 53%
    17:00 +18°C° 0 mm 3 mps 763 mmHg 53%
    18:00 +18°C° 0 mm 3 mps 763 mmHg 53%
    19:00 +18°C° 0 mm 2 mps 764 mmHg 51%
    20:00 +18°C° 0 mm 2 mps 764 mmHg 50%
    21:00 +19°C° 0 mm 1 mps 765 mmHg 49%
    22:00 +18°C° 0 mm 1 mps 764 mmHg 49%
    23:00 +18°C° 0 mm 1 mps 764 mmHg 49%

    25 January, Saturday

    Time Temperature Precipitation Wind Pressure Humidity
    00:00 +18°C° 0 mm 1 mps 764 mmHg 49%
    01:00 +18°C° 0 mm 1 mps 764 mmHg 48%
    02:00 +18°C° 0 mm 1 mps 763 mmHg 48%
    03:00 +18°C° 0 mm 1 mps 763 mmHg 48%
    04:00 +18°C° 0 mm 1 mps 763 mmHg 47%
    05:00 +18°C° 0 mm 1 mps 763 mmHg 47%
    06:00 +17°C° 0 mm 2 mps 763 mmHg 47%
    07:00 +17°C° 0 mm 2 mps 764 mmHg 45%
    08:00 +18°C° 0 mm 2 mps 765 mmHg 44%
    09:00 +18°C° 0 mm 2 mps 765 mmHg 42%
    10:00 +18°C° 0 mm 3 mps 765 mmHg 43%
    11:00 +18°C° 0 mm 4 mps 764 mmHg 43%
    12:00 +17°C° 0 mm 5 mps 764 mmHg 44%
    13:00 +19°C° 0 mm 6 mps 764 mmHg 44%
    14:00 +18°C° 0 mm 7 mps 764 mmHg 45%
    15:00 +18°C° 0 mm 8 mps 764 mmHg 46%
    16:00 +17°C° 0 mm 10 mps 764 mmHg 54%
    17:00 +17°C° 0 mm 11 mps 765 mmHg 61%
    18:00 +15°C° 0 mm 12 mps 765 mmHg 68%
    19:00 +16°C° 0 mm 11 mps 766 mmHg 64%
    20:00 +14°C° 0 mm 11 mps 766 mmHg 59%
    21:00 +14°C° 0 mm 10 mps 767 mmHg 55%
    22:00 +14°C° 0 mm 11 mps 767 mmHg 52%
    23:00 +13°C° 0 mm 12 mps 767 mmHg 49%

    26 January, Sunday

    Time Temperature Precipitation Wind Pressure Humidity
    00:00 +13°C° 0 mm 12 mps 767 mmHg 46%
    01:00 +12°C° 0 mm 12 mps 767 mmHg 46%
    02:00 +12°C° 0 mm 12 mps 767 mmHg 46%
    03:00 +10°C° 0 mm 12 mps 766 mmHg 45%
    04:00 +10°C° 0 mm 13 mps 767 mmHg 48%
    05:00 +9°C° 0 mm 13 mps 767 mmHg 50%
    06:00 +9°C° 0 mm 13 mps 767 mmHg 53%
    07:00 +9°C° 0 mm 13 mps 767 mmHg 54%
    08:00 +9°C° 0 mm 13 mps 768 mmHg 56%
    09:00 +9°C° 0 mm 12 mps 768 mmHg 57%
    10:00 +9°C° 0 mm 12 mps 768 mmHg 57%
    11:00 +10°C° 0 mm 13 mps 768 mmHg 58%
    12:00 +10°C° 0 mm 13 mps 768 mmHg 58%
    13:00 +10°C° 0 mm 13 mps 767 mmHg 56%
    14:00 +12°C° 0 mm 12 mps 767 mmHg 54%
    15:00 +12°C° 0 mm 12 mps 767 mmHg 53%
    16:00 +12°C° 0 mm 12 mps 767 mmHg 53%
    17:00 +12°C° 0 mm 12 mps 767 mmHg 54%
    18:00 +13°C° 0 mm 12 mps 767 mmHg 55%
    19:00 +13°C° 0 mm 12 mps 767 mmHg 57%
    20:00 +13°C° 0 mm 11 mps 767 mmHg 58%
    21:00 +13°C° 0 mm 11 mps 767 mmHg 60%
    22:00 +13°C° 0 mm 11 mps 767 mmHg 61%
    23:00 +13°C° 0 mm 11 mps 767 mmHg 63%
    Show more